Location: Sungai Bunut
(2.6333°N, 113.7333°E)
Time: 21:18:38
(UTC+00:00)

Vanguard 1 - Pass Details

Date: 12 December 2023
Orbit: 653 x 3826 km, 34.3° (Epoch: 28 February)

Event Time Altitude Azimuth Distance (km) Brightness Sun altitude
Rises 12:42:42 0° 317° (NW) 6,659 14.5 -33.9°
Reaches altitude 10° 12:47:38 10° 327° (NNW) 6,042 14.1 -35.0°
Enters shadow 13:02:07 32° 12° (NNE) 5,122 13.3 -38.3°
